Regional Weather Roundup
Issued by NWS Grand Forks, ND

Home | Current Version | Previous Version | Graphics & Text | Print | Product List | Glossary On
Versions: 1 2 3 4 5 6 7 8 9 10 11 12 13 14 15 16 17 18 19 20 21 22 23 24 25 26 27 28 29 30 31 32 33 34 35 36 37 38 39 40 41 42 43 44 45 46 47 48 49 50
000
ASUS43 KFGF 280510
RWRFGF
PRAIRIE TO PINES  WEATHER ROUNDUP
NATIONAL WEATHER SERVICE EASTERN NORTH DAKOTA/GRAND FORKS ND
1100 PM CST FRI FEB 27 2015

 **SATELLITE DATA USED TO AUGMENT SKY COVER AT AUTOMATED STATIONS**
 *****  WEATHER ACROSS EASTERN NORTH DAKOTA  *****

CITY           SKY/WX    TMP DP  RH WIND       PRES   REMARKS
GRAND FORKS    PTCLDY     3  -4  72 S10       30.33F WCI -12
GRAND FRKS AFB PTCLDY     6  -2  70 SW12      30.32F WCI -10
GRAND FRKS NWS   N/A      7 N/A N/A SW10        N/A  WCI  -8
DEVILS LAKE    PTCLDY     9   0  66 S17       30.21F WCI -10
FARGO          PTCLDY     9  -2  61 S12       30.37F WCI  -6
WAHPETON ARPT  CLEAR      7  -2  66 S13       30.40S WCI  -9
$$

 ***** WEATHER ACROSS CENTRAL AND WESTERN NORTH DAKOTA  *****

CITY           SKY/WX    TMP DP  RH WIND       PRES   REMARKS
BISMARCK       PTCLDY     8   1  73 SE8       30.18F WCI  -4
MINOT          CLOUDY    10   1  67 CALM      30.11F
JAMESTOWN      PTCLDY     1  -5  75 S12       30.24F WCI -16
MINOT AFB      CLOUDY     8   2  78 S12       30.11F WCI  -8
GARRISON         N/A     12   4  70 S13       30.10F WCI  -3
WILLISTON      MOCLDY    13   6  74 N5        30.05S WCI   5
DICKINSON      PTCLDY    13   5  70 S9        30.00F WCI   1
HETTINGER      PTCLDY    14   3  61 SE8       30.02F WCI   3
$$

 *****  OTHER AIRPORT OBSERVATIONS IN OUR AREA  *****

CITY           SKY/WX    TMP DP  RH WIND       PRES   REMARKS
WALHALLA         N/A     10   0  61 SW13      30.26F WCI  -5
GRAFTON AIRPOR NOT AVBL
VALLEY CITY AR   N/A      0  -4  85 S8        30.28F WCI -15
CANDO          FAIR       3  -2  78 S7        30.21R WCI  -9
CAVALIER APRT  FAIR       3  -2  78 S9        30.29S WCI -11
GWINNER        CLEAR      1  -6  71 SE5       30.33F WCI  -8
ROLLA          FAIR       1  -2  85 S7        30.16F WCI -11
 ***** THE ABOVE OBSERVATIONS ARE NON NWS ARE NOT QUALITY
       CONTROLLED AND MAY MIS-REPORT RAIN FOR SNOW...
$$

  *****  WEATHER ACROSS NORTHERN MINNESOTA  *****

CITY           SKY/WX    TMP DP  RH WIND       PRES   REMARKS
FLAG ISLAND    PTCLDY    -2  -6  84 S8        30.28F WCI -17
WARROAD        PTCLDY     7  -2  66 SW7       30.31R WCI  -5
ROSEAU         PTCLDY     9   0  66 SW12      30.31S WCI  -6
HALLOCK        NOT AVBL
THF RVR FALLS  PTCLDY     5  -2  72 S9        30.33S WCI  -9
BAUDETTE       PTCLDY     1  -6  72 S5        30.31S WCI  -9
WASKISH        PTCLDY     7  -4  61 S5        30.34R WCI  -2
CROOKSTON      PTCLDY     5  -2  72 S12       30.37S WCI -11
STEPHEN NDAWN    N/A      3  -2  78 S12         N/A  WCI -13
GREENBUSH NDAW   N/A      7   0  72 MISG        N/A
$$
  *****  WEATHER ACROSS CENTRAL AND WEST MINNESOTA  *****

CITY           SKY/WX    TMP DP  RH WIND       PRES   REMARKS
FOSSTON        PTCLDY     3  -2  78 S16       30.34S WCI -16
BEMIDJI        FAIR       4  -5  67 S6        30.34S WCI  -7
PARK RAPIDS    CLEAR      2  -6  69 S5        30.36S WCI  -8
ELBOW LAKE     FAIR       0  -5  78 S9        30.40S WCI -15
WADENA         PTCLDY    -4  -9  77 S5        30.38F WCI -15
DETROIT LAKES  CLEAR      3  -4  72 S6        30.36F WCI  -8
MOORHEAD       PTCLDY     7   1  78 S10       30.39S WCI  -8
FERGUS FALLS   CLEAR      1  -6  71 S8        30.44S WCI -12
MORRIS MN      CLEAR      0  -6  78 S8        30.42S WCI -15
STAPLES        PTCLDY     0  -6  78 S6        30.40F WCI -12
$$
  *****  WEATHER ELSEWHERE ACROSS MINNESOTA  *****

CITY           SKY/WX    TMP DP  RH WIND       PRES   REMARKS
DULUTH         CLEAR      7  -6  55 SW9       30.38S WCI  -7
INTRNTL FALLS  CLEAR     -6 -14  68 CALM      30.33S
ELY            NOT AVBL
CLOQUET        CLEAR      5  -8  56 SW7       30.40S WCI  -7
WHEATON        CLEAR      3  -4  72 SE12      30.42F WCI -13
BRAINERD       CLEAR      3  -6  66 S7        30.42S WCI  -9
HIBBING        CLEAR     -6 -16  61 CALM      30.36S
ALEXANDRIA     CLEAR      4  -3  73 S9        30.40F WCI -10
SAINT CLOUD    CLEAR      2  -4  76 S6        30.47S WCI  -9
MINNEAPOLIS    CLEAR      6  -3  66 SW9       30.53F WCI  -8
$$

  *****  WEATHER ACROSS SOUTH DAKOTA  *****

CITY           SKY/WX    TMP DP  RH WIND       PRES   REMARKS
SIOUX FALLS    CLEAR      7  -1  70 S13       30.42F WCI  -9
BROOKINGS      NOT AVBL
WATERTOWN      CLEAR      2  -3  80 S9        30.34F WCI -13
HURON          CLEAR      9   2  73 S15       30.35S WCI  -8
SISSETON         N/A      4  -2  76 S9        30.37F WCI -10
ABERDEEN       CLEAR      7   0  73 S17       30.31F WCI -12
MITCHELL       CLEAR     12   3  67 S14       30.38F WCI  -3
PIERRE         CLEAR     14  -2  49 SE10      30.21S WCI   1
MOBRIDGE       CLEAR     11   0  61 SE9       30.15F WCI  -2
RAPID CITY     PTCLDY    14   7  73 S12       30.02S WCI   0
$$

  *****  SOME WEATHER IN NEARBY STATES *****

CITY           SKY/WX    TMP DP  RH WIND       PRES   REMARKS
GLASGOW MT     CLEAR      8  -3  61 NW12      30.10R WCI  -7
GREAT FALLS MT CLOUDY    16  10  77 NE3       30.09R
CHEYENNE WY    CLOUDY     8   4  83 S16       29.84F WCI -10
SCOTTSBLUFF NE CLOUDY    15   7  70 SE14      30.01S WCI   0
OMAHA NE       CLEAR     10   2  69 SE6       30.53F WCI   0
DES MOINES IA  CLEAR      6  -3  66 SE8       30.59F WCI  -7
DAVENPORT IA   MOCLDY    -3 -11  68 CALM      30.66S
CHICAGO IL     CLEAR      3  -6  66 SW3       30.65F
EAU CLAIRE WI  CLEAR      1  -6  72 SW6       30.54S WCI -10
LA CROSSE WI   CLEAR      2  -7  66 S7        30.62S WCI -11
$$

  *****  SOME NATIONAL WEATHER *****

CITY           SKY/WX    TMP DP  RH WIND       PRES   REMARKS
LA GUARDIA NY  CLEAR     21   1  41 NW14      30.62R WCI   8
RALEIGH NC     PTCLDY    32  15  49 N6        30.57R
ATLANTA GA     MOCLDY    33  20  58 NW9       30.44R
NEW ORLEANS LA PTCLDY    47  33  58 NE12      30.40S
OKLAHOMA CITY  CLOUDY    19  12  74 E7        30.45F WCI  10
ALBUQUERQUE NM LGT SNOW  22  20  92 N9        29.93R VSB 1   WCI  12
SALT LAKE CITY MOCLDY    33  25  72 S7        29.70S
LOS ANGELES CA MOCLDY    58  51  78 SW20      29.76S
BOISE ID       CLOUDY    41  32  70 SE12      29.65R
SEATTLE WA     CLOUDY    49  38  65 NE12G21   29.86R
$$

*** WEATHER ACROSS MANITOBA...SASKATCHEWAN AND ONTARIO ***
                ***ONTARIO***

CITY           SKY/WX    TMP DP  RH WIND       PRES   REMARKS
GERALDTON      PTCLDY     9  -8  47 SW12      30.20S WCI  -6
THUNDER BAY    MOCLDY     0 -11  60 W6        30.36R WCI -12
SIOUX LOOKOUT  PTCLDY     7  -6  56 SW9       30.23R WCI  -7
TORONTO        CLEAR      3  -6  66 W7        30.63S WCI  -9
BIG TROUT LK   FLURRIES   5   1  85 W6        30.02S WCI  -6
PICKLE LAKE    NOT AVBL
DRYDEN         CLOUDY     5  -4  66 SW13      30.23S WCI -12
KENORA         MOCLDY     5  -2  72 SW12      30.24S WCI -11
$$
                *** MANITOBA***

CITY           SKY/WX    TMP DP  RH WIND       PRES   REMARKS
BRANDON        MOCLDY    -8 -13  77 CALM      30.18F
DAUPHIN        PTCLDY     5  -2  72 W13       30.17S WCI -12
ISLAND LAKE    MOCLDY     7  -2  66 SW6       30.06F WCI  -3
PILOT MOUND      N/A      1  -4  78 S14         N/A  WCI -17
THE PAS        CLOUDY    10   0  61 W8        30.12S WCI  -1
THOMPSON       FLURRIES   9   3  78 W6        30.02F WCI  -1
WINNIPEG       MOCLDY     7  -2  66 SW13      30.27F WCI  -9
LYNN LAKE      CLOUDY    10   5  79 W9        29.99F WCI  -2
CHURCHILL      CRYSTALS  -8 -11  84 SW7       29.89F WCI -22
GILLAM         FLURRIES   9   1  72 W7        29.98F WCI  -3
$$
                ***SASKATCHEWAN***

CITY           SKY/WX    TMP DP  RH WIND       PRES   REMARKS
ESTEVAN        CLOUDY     5   0  78 E6        30.07F WCI  -6
KINDERSLEY     FLURRIES   7   1  78 NW9       30.16R WCI  -7
LLOYDMINSTER   PTCLDY    -2  -6  84 W10       30.13F WCI -19
PRINCE ALBERT  CLEAR     -8  -9  92 W5        30.16S WCI -19
REGINA         PTCLDY    -9 -13  84 NW6       30.12S WCI -23
YORKTON        CLEAR      0  -6  78 W7        30.12F WCI -13
N. BATTLEFORD  MOCLDY     0  -4  85 W3        30.19S
LA RONGE       PTCLDY     3  -4  72 SW6       30.12F WCI  -8
SASKATOON      FLURRIES   5   0  78 NW8       30.18S WCI  -8
SWIFT CURRENT  FLURRIES   7   3  85 NW13      30.08S WCI  -9
$$
NOTE: THESE ARE AUTOMATED STATIONS WITH LIMITED QUALITY CONTROL
      "FAIR" INDICATES FEW OR NO CLOUDS BELOW 12,000 FEET WITH NO
      SIGNIFICANT WEATHER AND/OR OBSTRUCTIONS TO VISIBILITY.
      SKY/WX - SKY CONDITION AND SIGNIFICANT WEATHER.
      TMP - AIR TEMPERATURE.    DP   - DEWPOINT TEMPERATURE.
      RH  - RELATIVE HUMIDITY.  PRES - PRESSURE.
      HX  - HEAT INDEX.         WCI  - WIND CHILL INDEX.
$



USA.gov is the U.S. government's official web portal to all federal, state and local government web resources and services.